Location: W�rzburg
(49.7529°N, 9.8822°E)
Time: 13:35:34
(UTC+01:00)

Amateur Radio Satellites - All Passes

Search period start: 19 November 2017 13:05
Search period end: 20 November 2017 13:05
Location: W�rzburg, 49.7529°N, 9.8822°E

Satellite Date Start Highest point End Downlink Frequencies (MHz)
Time Altitude Azimuth
LO-87 19 Nov 13:06:08 13:08:05 14° 299° (WNW) 13:10:03 145.935 - 145.965
DUCHIFAT 1 19 Nov 13:06:57 13:08:25 12° 273° (W) 13:09:54 145.980
VELOX 1 19 Nov 13:07:08 13:11:36 62° 102° (ESE) 13:15:59 145.980
O/OREOS (USA 219) 19 Nov 13:09:29 13:12:20 16° 100° (E) 13:15:10 437.305
UKube-1 19 Nov 13:13:15 13:15:04 12° 88° (E) 13:16:52 .
BEESAT 3 19 Nov 13:16:06 13:18:23 15° 248° (WSW) 13:20:38 437.485
Oscar 19 19 Nov 13:31:41 13:36:33 45° 261° (W) 13:41:29 437.125/150
Gurwin Techsat 1B 19 Nov 13:37:37 13:42:50 55° 259° (W) 13:48:05 435.225
AO-7 19 Nov 13:38:02 13:45:50 48° 57° (ENE) 13:53:40 .
ITAMSAT 1 19 Nov 13:40:50 13:44:47 22° 57° (ENE) 13:48:44 435.822/435.867
AO-85 19 Nov 13:53:34 13:58:01 49° 237° (WSW) 14:02:48 145.980
DX 1 19 Nov 14:00:13 14:04:33 53° 101° (E) 14:08:49 434.975-435.025
50 SAT 19 Nov 14:00:33 14:03:47 64° 102° (ESE) 14:06:59 437.505
M-CUBED/EXP-1 PRIME 19 Nov 14:00:50 14:04:20 54° 254° (WSW) 14:08:07 437.505
BEESAT 2 19 Nov 14:22:40 14:23:57 11° 251° (WSW) 14:25:14 435.950
SPROUT 19 Nov 14:23:57 14:26:49 18° 300° (WNW) 14:29:41 437.525
YUBILEINY 19 Nov 14:27:58 14:32:43 15° 45° (NE) 14:37:28 435.215
VELOX 1 19 Nov 14:44:28 14:47:37 19° 301° (WNW) 14:50:45 145.980
O/OREOS (USA 219) 19 Nov 14:46:35 14:51:11 71° 299° (WNW) 14:55:49 437.305
UKube-1 19 Nov 14:47:18 14:51:40 83° 285° (WNW) 14:56:00 .
BEESAT 19 Nov 14:49:18 14:52:40 19° 91° (E) 14:56:02 436.000
ITUPSAT 1 19 Nov 14:57:12 15:00:52 22° 92° (E) 15:04:31 437.325
DOVE 4 19 Nov 15:15:08 15:19:15 25° 61° (ENE) 15:23:29 437.250
ITAMSAT 1 19 Nov 15:18:33 15:23:46 69° 257° (WSW) 15:29:01 435.822/435.867
AO-7 19 Nov 15:30:36 15:38:36 51° 259° (W) 15:46:40 .
MOZHAYETS 4 19 Nov 15:31:00 15:35:30 57° 101° (E) 15:40:00
50 SAT 19 Nov 15:34:31 15:35:25 11° 300° (WNW) 15:36:17 437.505
DX 1 19 Nov 15:37:05 15:40:23 21° 300° (WNW) 15:43:41 434.975-435.025
CUBESAT XI-V 19 Nov 15:37:07 15:40:27 19° 90° (E) 15:43:46 437.345
LilacSat-2 19 Nov 16:04:49 16:06:33 13° 59° (ENE) 16:08:17 437.200
HO-68 19 Nov 16:05:30 16:09:51 17° 43° (NE) 16:14:12 435.675
XW-2C 19 Nov 16:05:53 16:07:26 12° 59° (ENE) 16:08:59 145.795 - 145.815
NO-84 19 Nov 16:10:41 16:14:02 30° 136° (SE) 16:17:36 435.350 FM
XW-2F 19 Nov 16:18:01 16:20:11 15° 61° (ENE) 16:22:21 145.980 - 146.000
YUBILEINY 19 Nov 16:23:25 16:32:05 54° 72° (ENE) 16:40:41 435.215
UKube-1 19 Nov 16:25:07 16:26:59 13° 305° (NW) 16:28:50 .
BEESAT 19 Nov 16:26:10 16:30:53 62° 289° (WNW) 16:35:33 436.000
O/OREOS (USA 219) 19 Nov 16:28:53 16:31:28 15° 320° (NW) 16:34:04 437.305
ITUPSAT 1 19 Nov 16:34:22 16:39:02 54° 290° (WNW) 16:43:38 437.325
CUTE-I 19 Nov 16:35:12 16:39:49 30° 61° (ENE) 16:44:27 437.470
KAITUO 1B 19 Nov 16:48:51 16:51:49 24° 65° (ENE) 16:54:49 145.475/437.950
RS-15 19 Nov 16:49:19 16:50:30 10° 88° (E) 16:51:41 29.354- 29.394
DOVE 4 19 Nov 16:51:35 16:56:32 58° 261° (W) 17:01:44 437.250
CUTE 1.7 + AOD 2 19 Nov 16:55:05 16:56:55 13° 57° (ENE) 16:58:45 437.475
XW-2D 19 Nov 16:57:24 17:00:53 39° 70° (ENE) 17:04:25 145.860 - 145.880
ITAMSAT 1 19 Nov 17:03:06 17:04:12 11° 276° (W) 17:05:20 435.822/435.867
MOZHAYETS 4 19 Nov 17:08:55 17:12:18 21° 299° (WNW) 17:15:41
XW-2B 19 Nov 17:11:57 17:15:36 55° 72° (ENE) 17:19:18 145.730 - 145.750
CUBESAT XI-V 19 Nov 17:13:35 17:18:12 61° 288° (WNW) 17:22:49 437.345
CUBEBUG 2 19 Nov 17:27:09 17:30:10 18° 60° (ENE) 17:33:07 437.445
SEEDS 19 Nov 17:28:54 17:31:35 17° 60° (ENE) 17:34:16 437.485
NUDT-PHONESAT 19 Nov 17:36:34 17:40:11 74° 75° (ENE) 17:43:51 437.300
LilacSat-2 19 Nov 17:36:34 17:40:18 72° 258° (WSW) 17:44:05 437.200
XW-2C 19 Nov 17:37:21 17:41:04 75° 257° (WSW) 17:44:50 145.795 - 145.815
KKS-1 19 Nov 17:38:57 17:43:25 64° 102° (ESE) 17:47:51 437.445
AAUSAT CUBESAT 2 19 Nov 17:43:51 17:45:15 11° 56° (NE) 17:46:39 437.432
NO-84 19 Nov 17:47:13 17:51:09 69° 336° (NNW) 17:55:19 435.350 FM
HO-68 19 Nov 17:49:11 17:56:14 61° 65° (ENE) 18:03:19 435.675
XW-2F 19 Nov 17:50:13 17:53:53 57° 260° (W) 17:57:34 145.980 - 146.000
XW-2A 19 Nov 18:01:07 18:02:52 14° 62° (ENE) 18:04:39 145.665 - 145.685
BEESAT 19 Nov 18:06:24 18:07:43 11° 309° (NW) 18:09:02 436.000
STARS 19 Nov 18:09:27 18:13:48 55° 101° (E) 18:18:05 437.465
CUTE-I 19 Nov 18:14:28 18:19:39 49° 260° (W) 18:24:53 437.470
YUBILEINY 19 Nov 18:20:36 18:28:43 43° 274° (W) 18:36:49 435.215
KAITUO 1B 19 Nov 18:22:21 18:25:40 31° 264° (W) 18:29:01 145.475/437.950
ZACube-1 19 Nov 18:23:40 18:26:43 19° 61° (ENE) 18:29:42 437.345
UWE-3 19 Nov 18:27:19 18:31:20 34° 67° (ENE) 18:35:17 435.000/436.395/437.385
CUTE 1.7 + AOD 2 19 Nov 18:27:53 18:32:05 90° 22° (NNE) 18:36:20 437.475
XW-2D 19 Nov 18:32:31 18:35:14 19° 268° (W) 18:37:59 145.860 - 145.880
XW-2B 19 Nov 18:48:05 18:50:08 14° 271° (W) 18:52:11 145.730 - 145.750
RS-15 19 Nov 18:48:07 18:59:33 48° 112° (ESE) 19:10:53 29.354- 29.394
CUBESAT XI-V 19 Nov 18:53:50 18:54:38 10° 308° (NW) 18:55:26 437.345
STRAND 1 19 Nov 18:54:13 18:58:09 22° 91° (E) 19:02:01 437.568
CUBEBUG 2 19 Nov 19:01:43 19:06:19 69° 257° (WSW) 19:10:47 437.445
SEEDS 19 Nov 19:02:41 19:06:48 63° 259° (W) 19:10:59 437.485
NUDT-PHONESAT 19 Nov 19:14:08 19:14:32 10° 273° (W) 19:14:56 437.300
AO-73 19 Nov 19:14:41 19:18:49 48° 71° (ENE) 19:22:53 145.935
AAUSAT CUBESAT 2 19 Nov 19:15:52 19:19:59 83° 76° (ENE) 19:24:10 437.432
KKS-1 19 Nov 19:16:25 19:19:32 19° 301° (WNW) 19:22:38 437.445
NO-84 19 Nov 19:25:06 19:28:59 39° 358° (N) 19:33:00 435.350 FM
FO-29 19 Nov 19:25:16 19:30:39 19° 83° (E) 19:35:52 435.910
XW-2A 19 Nov 19:31:59 19:35:13 48° 260° (W) 19:38:28 145.665 - 145.685
Oscar 11 19 Nov 19:33:26 19:37:36 52° 71° (ENE) 19:41:48 .
HO-68 19 Nov 19:38:00 19:44:22 33° 266° (W) 19:50:47 435.675
STARS 19 Nov 19:46:30 19:49:47 21° 300° (WNW) 19:53:02 437.465
ZACube-1 19 Nov 19:58:22 20:02:38 56° 260° (W) 20:06:51 437.345
UWE-3 19 Nov 20:03:55 20:07:49 29° 265° (W) 20:11:39 435.000/436.395/437.385
Max Valier Satellite 19 Nov 20:05:05 20:07:31 17° 63° (ENE) 20:09:58 145.860
DELFI C3 19 Nov 20:06:46 20:10:06 26° 65° (ENE) 20:13:27 145.870
CUTE 1.7 + AOD 2 19 Nov 20:07:40 20:08:35 11° 275° (W) 20:09:29 437.475
EO-88 19 Nov 20:08:50 20:10:47 14° 61° (ENE) 20:12:44 145.990 - 145.960
STRAND 1 19 Nov 20:32:40 20:37:44 61° 290° (WNW) 20:42:45 437.568
AO-73 19 Nov 20:52:07 20:55:18 20° 268° (W) 20:58:27 145.935
AAUSAT CUBESAT 2 19 Nov 20:54:41 20:56:03 11° 274° (W) 20:57:24 437.432
RS-15 19 Nov 20:59:17 21:11:39 71° 317° (NW) 21:23:49 29.354- 29.394
NO-84 19 Nov 21:02:46 21:06:54 54° 18° (NNE) 21:11:07 435.350 FM
FO-29 19 Nov 21:08:55 21:16:53 78° 104° (ESE) 21:24:31 435.910
Oscar 11 19 Nov 21:10:58 21:14:03 19° 269° (W) 21:17:08 .
ISS 19 Nov 21:19:16 21:20:03 11° 135° (SE) 21:20:49 437.550
UNISAT 6 19 Nov 21:25:05 21:28:30 23° 92° (E) 21:31:52 437.425
TIGRISAT 19 Nov 21:29:59 21:33:26 23° 93° (E) 21:36:49 435.000
O/OREOS (USA 219) 19 Nov 21:34:56 21:37:17 14° 39° (NE) 21:39:37 437.305
Max Valier Satellite 19 Nov 21:37:31 21:41:02 45° 261° (W) 21:44:35 145.860
EO-88 19 Nov 21:40:25 21:43:59 59° 259° (WSW) 21:47:36 145.990 - 145.960
DELFI C3 19 Nov 21:41:09 21:44:45 33° 264° (W) 21:48:22 145.870
ESTCUBE 1 19 Nov 22:03:27 22:07:25 32° 65° (ENE) 22:11:26 437.505/2401.250
LO-87 19 Nov 22:11:15 22:14:40 43° 71° (ENE) 22:18:07 145.935 - 145.965
SPROUT 19 Nov 22:11:37 22:13:13 12° 55° (NE) 22:14:48 437.525
STRAND 1 19 Nov 22:14:05 22:15:55 12° 310° (NW) 22:17:45 437.568
nSIGHT-1 19 Nov 22:15:16 22:18:11 32° 147° (SSE) 22:21:05 .
VELOX 1 19 Nov 22:34:27 22:36:50 14° 56° (NE) 22:39:13 145.980
NO-84 19 Nov 22:40:12 22:44:20 50° 218° (SW) 22:48:27 435.350 FM
AIST 2D 19 Nov 22:46:29 22:48:54 17° 92° (E) 22:51:19 435.315
ISS 19 Nov 22:52:43 22:55:54 49° 153° (SSE) 22:59:05 437.550
FO-29 19 Nov 22:54:33 23:01:12 31° 304° (NW) 23:07:43 435.910
SO-50 19 Nov 22:54:41 22:59:06 64° 126° (SE) 23:03:36 436.795
PRISM 19 Nov 23:00:14 23:04:26 73° 104° (ESE) 23:08:35 437.425
UNISAT 6 19 Nov 23:01:20 23:05:25 42° 292° (WNW) 23:09:26 437.425
TIGRISAT 19 Nov 23:06:15 23:10:18 41° 292° (WNW) 23:14:18 435.000
O/OREOS (USA 219) 19 Nov 23:13:04 23:17:38 66° 60° (ENE) 23:22:09 437.305
EO-79 19 Nov 23:13:37 23:15:50 14° 89° (E) 23:18:02 145.935-145.965
RS-15 19 Nov 23:15:08 23:26:35 41° 348° (NNW) 23:37:43 29.354- 29.394
NANOSAT C BR1 19 Nov 23:18:12 23:20:22 14° 88° (E) 23:22:32 145.865
DX 1 19 Nov 23:26:38 23:28:28 12° 54° (NE) 23:30:18 434.975-435.025
POLYITAN 1 19 Nov 23:27:45 23:30:47 19° 91° (E) 23:33:47 437.675
ESTCUBE 1 19 Nov 23:40:09 23:44:12 33° 264° (W) 23:48:17 437.505/2401.250
SPROUT 19 Nov 23:44:05 23:48:23 80° 74° (ENE) 23:52:42 437.525
LO-87 19 Nov 23:45:54 23:48:17 17° 269° (W) 23:50:40 145.935 - 145.965
QB50P2 19 Nov 23:50:20 23:54:12 34° 97° (E) 23:58:02 145.880/145.840
nSIGHT-1 19 Nov 23:51:02 23:54:16 76° 348° (NNW) 23:57:28 .
PCSat 20 Nov 00:04:19 00:08:15 21° 107° (ESE) 00:12:12 145.827
VELOX 1 20 Nov 00:08:11 00:12:38 88° 255° (WSW) 00:17:08 145.980
BUGSAT 1 20 Nov 00:10:18 00:10:47 10° 86° (E) 00:11:16 437.445
UKube-1 20 Nov 00:11:08 00:14:17 20° 60° (ENE) 00:17:25 .
AIST 2D 20 Nov 00:18:56 00:22:14 38° 289° (WNW) 00:25:32 435.315
NO-84 20 Nov 00:20:00 00:20:53 11° 236° (SW) 00:21:46 435.350 FM
ISS 20 Nov 00:29:06 00:32:22 64° 352° (N) 00:35:37 437.550
50 SAT 20 Nov 00:31:30 00:34:34 39° 70° (ENE) 00:37:39 437.505
SO-50 20 Nov 00:36:02 00:39:56 28° 327° (NNW) 00:43:52 436.795
PRISM 20 Nov 00:36:45 00:39:11 15° 302° (WNW) 00:41:36 437.425
DUCHIFAT 1 20 Nov 00:42:51 00:47:03 83° 106° (ESE) 00:51:13 145.980
EO-79 20 Nov 00:47:52 00:52:04 69° 288° (WNW) 00:56:14 145.935-145.965
NANOSAT C BR1 20 Nov 00:52:23 00:56:34 70° 286° (WNW) 01:00:43 145.865
O/OREOS (USA 219) 20 Nov 00:53:35 00:56:32 17° 260° (W) 00:59:28 437.305
DX 1 20 Nov 00:59:33 01:03:55 80° 73° (ENE) 01:08:20 434.975-435.025
MOZHAYETS 4 20 Nov 01:02:29 01:04:55 14° 56° (NE) 01:07:19
POLYITAN 1 20 Nov 01:02:46 01:06:51 49° 290° (WNW) 01:10:53 437.675
SPROUT 20 Nov 01:22:59 01:24:50 12° 273° (W) 01:26:42 437.525
QB50P2 20 Nov 01:26:18 01:29:54 28° 295° (WNW) 01:33:28 145.880/145.840
nSIGHT-1 20 Nov 01:27:29 01:30:40 62° 6° (N) 01:33:51 .
RS-15 20 Nov 01:31:00 01:42:36 46° 22° (NNE) 01:53:38 29.354- 29.394
Oscar 19 20 Nov 01:38:16 01:43:14 45° 99° (E) 01:48:10 437.125/150
BUGSAT 1 20 Nov 01:42:41 01:46:46 88° 294° (WNW) 01:50:48 437.445
PCSat 20 Nov 01:45:38 01:51:04 77° 307° (NW) 01:56:32 145.827
UKube-1 20 Nov 01:45:41 01:49:56 56° 259° (W) 01:54:13 .
VELOX 1 20 Nov 01:48:21 01:49:45 11° 274° (W) 01:51:10 145.980
Gurwin Techsat 1B 20 Nov 01:49:09 01:54:13 42° 98° (E) 01:59:14 435.225
BEESAT 20 Nov 01:59:26 02:03:47 36° 65° (ENE) 02:08:08 436.000
50 SAT 20 Nov 02:04:59 02:06:52 14° 268° (W) 02:08:45 437.505
ISS 20 Nov 02:05:45 02:09:01 73° 11° (N) 02:12:18 437.550
ITUPSAT 1 20 Nov 02:07:44 02:12:13 42° 67° (ENE) 02:16:44 437.325
SO-50 20 Nov 02:19:35 02:21:51 13° 351° (N) 02:24:08 436.795
DUCHIFAT 1 20 Nov 02:20:03 02:22:07 14° 303° (WNW) 02:24:10 145.980
EO-79 20 Nov 02:26:40 02:27:02 10° 306° (NW) 02:27:24 145.935-145.965
NANOSAT C BR1 20 Nov 02:31:07 02:31:28 10° 306° (NW) 02:31:50 145.865
MOZHAYETS 4 20 Nov 02:36:49 02:41:24 90° 56° (NE) 02:45:59
DX 1 20 Nov 02:38:39 02:40:41 13° 272° (W) 02:42:43 434.975-435.025
CUBESAT XI-V 20 Nov 02:44:20 02:48:19 30° 65° (ENE) 02:52:21 437.345
nSIGHT-1 20 Nov 03:03:46 03:06:55 53° 206° (SSW) 03:10:02 .
KKS-1 20 Nov 03:06:45 03:09:23 16° 57° (ENE) 03:12:02 437.445
BEESAT 3 20 Nov 03:07:57 03:11:22 28° 118° (ESE) 03:14:49 437.485
M-CUBED/EXP-1 PRIME 20 Nov 03:07:59 03:12:22 52° 106° (ESE) 03:16:53 437.505
Oscar 19 20 Nov 03:17:55 03:22:23 31° 298° (WNW) 03:26:51 437.125/150
BUGSAT 1 20 Nov 03:19:59 03:21:28 12° 304° (NW) 03:22:56 437.445
AO-7 20 Nov 03:26:36 03:34:31 44° 99° (E) 03:42:23 .
ITAMSAT 1 20 Nov 03:27:09 03:31:42 30° 95° (E) 03:36:14 435.822/435.867
Gurwin Techsat 1B 20 Nov 03:29:18 03:34:05 34° 297° (WNW) 03:38:49 435.225
PCSat 20 Nov 03:31:08 03:35:21 22° 330° (NNW) 03:39:35 145.827
STARS 20 Nov 03:36:30 03:38:35 13° 55° (NE) 03:40:41 437.465
BEESAT 20 Nov 03:37:17 03:41:35 33° 264° (W) 03:45:54 436.000
YUBILEINY 20 Nov 03:41:33 03:43:37 11° 66° (ENE) 03:45:40 435.215
ISS 20 Nov 03:42:21 03:45:23 35° 212° (SSW) 03:48:24 437.550
RS-15 20 Nov 03:44:33 03:56:39 90° 50° (NE) 04:08:02 29.354- 29.394
ITUPSAT 1 20 Nov 03:46:03 03:50:11 28° 265° (W) 03:54:19 437.325
SO-50 20 Nov 04:01:25 04:04:10 15° 16° (NNE) 04:06:55 436.795
AO-85 20 Nov 04:13:42 04:16:10 16° 112° (ESE) 04:18:43 145.980
BEESAT 2 20 Nov 04:14:52 04:18:37 39° 121° (ESE) 04:22:25 435.950
MOZHAYETS 4 20 Nov 04:17:26 04:19:13 12° 274° (W) 04:21:02
CUBESAT XI-V 20 Nov 04:21:20 04:25:36 37° 264° (W) 04:29:55 437.345
KKS-1 20 Nov 04:40:52 04:45:21 82° 256° (WSW) 04:49:53 437.445
nSIGHT-1 20 Nov 04:41:24 04:42:34 12° 224° (SW) 04:43:44 .
M-CUBED/EXP-1 PRIME 20 Nov 04:42:53 04:46:29 25° 303° (WNW) 04:50:11 437.505
BEESAT 3 20 Nov 04:44:57 04:48:46 42° 317° (NW) 04:52:38 437.485
DOVE 4 20 Nov 04:46:07 04:50:51 33° 93° (E) 04:55:24 437.250
ITAMSAT 1 20 Nov 05:06:22 05:11:20 45° 294° (WNW) 05:16:17 435.822/435.867
STARS 20 Nov 05:09:47 05:14:13 85° 77° (ENE) 05:18:42 437.465
PCSat 20 Nov 05:18:30 05:20:51 13° 356° (N) 05:23:12 145.827
AO-7 20 Nov 05:19:26 05:27:29 55° 300° (WNW) 05:35:31 .
XW-2F 20 Nov 05:19:36 05:20:41 11° 87° (E) 05:21:45 145.980 - 146.000
YUBILEINY 20 Nov 05:29:48 05:38:09 52° 89° (E) 05:46:34 435.215
SO-50 20 Nov 05:41:30 05:45:50 39° 39° (NE) 05:50:14 436.795
FO-29 20 Nov 05:43:55 05:48:02 17° 43° (NE) 05:52:19 435.910
KAITUO 1B 20 Nov 05:49:00 05:51:39 18° 92° (E) 05:54:18 145.475/437.950
AO-85 20 Nov 05:52:07 05:56:01 66° 313° (NW) 06:00:10 145.980
BEESAT 2 20 Nov 05:52:42 05:56:24 33° 321° (NW) 06:00:08 435.950
RS-15 20 Nov 05:58:00 06:07:34 31° 257° (WSW) 06:16:46 29.354- 29.394
XW-2D 20 Nov 05:59:13 06:02:39 31° 96° (E) 06:06:05 145.860 - 145.880
CUTE 1.7 + AOD 2 20 Nov 06:09:58 06:11:40 12° 87° (E) 06:13:22 437.475
XW-2B 20 Nov 06:13:51 06:17:30 43° 99° (E) 06:21:09 145.730 - 145.750
STRAND 1 20 Nov 06:13:59 06:18:55 48° 67° (ENE) 06:23:52 437.568
KKS-1 20 Nov 06:21:43 06:22:39 11° 274° (W) 06:23:34 437.445
DOVE 4 20 Nov 06:23:40 06:28:36 41° 293° (WNW) 06:33:20 437.250
BEESAT 3 20 Nov 06:25:15 06:27:18 13° 339° (NNW) 06:29:20 437.485
CUTE-I 20 Nov 06:26:40 06:31:53 48° 99° (E) 06:37:02 437.470
NUDT-PHONESAT 20 Nov 06:35:44 06:39:23 54° 101° (E) 06:43:01 437.300
LilacSat-2 20 Nov 06:39:15 06:43:06 88° 285° (WNW) 06:46:57 437.200
XW-2C 20 Nov 06:39:15 06:43:05 87° 103° (ESE) 06:46:54 145.795 - 145.815
SEEDS 20 Nov 06:42:44 06:45:27 16° 89° (E) 06:48:10 437.485
CUBEBUG 2 20 Nov 06:48:58 06:51:47 17° 90° (E) 06:54:34 437.445
STARS 20 Nov 06:49:15 06:51:11 13° 273° (W) 06:53:06 437.465
XW-2F 20 Nov 06:51:29 06:55:16 74° 285° (WNW) 06:59:03 145.980 - 146.000
HO-68 20 Nov 06:59:33 07:06:20 42° 97° (E) 07:13:02 435.675
PCSat 20 Nov 07:03:00 07:06:34 17° 22° (NNE) 07:10:08 145.827
AO-7 20 Nov 07:13:22 07:18:32 18° 324° (NW) 07:23:42 .
SO-50 20 Nov 07:22:00 07:26:21 41° 239° (WSW) 07:30:45 436.795
KAITUO 1B 20 Nov 07:22:15 07:25:50 42° 289° (WNW) 07:29:24 145.475/437.950
FO-29 20 Nov 07:24:51 07:31:26 57° 66° (ENE) 07:38:46 435.910
YUBILEINY 20 Nov 07:26:52 07:35:08 45° 292° (WNW) 07:43:32 435.215
XW-2D 20 Nov 07:33:35 07:36:44 25° 294° (WNW) 07:39:52 145.860 - 145.880
BEESAT 2 20 Nov 07:33:36 07:35:18 12° 343° (NNW) 07:37:00 435.950
AO-85 20 Nov 07:34:29 07:37:14 17° 336° (NNW) 07:40:08 145.980
ZACube-1 20 Nov 07:42:36 07:45:38 19° 91° (E) 07:48:39 437.345
CUTE 1.7 + AOD 2 20 Nov 07:43:47 07:48:05 82° 285° (WNW) 07:52:21 437.475
UWE-3 20 Nov 07:48:17 07:52:12 38° 97° (E) 07:56:04 435.000/436.395/437.385
XW-2B 20 Nov 07:48:40 07:51:24 19° 297° (WNW) 07:54:08 145.730 - 145.750
STRAND 1 20 Nov 07:53:55 07:58:18 28° 266° (W) 08:02:44 437.568
CUTE-I 20 Nov 08:07:05 08:11:44 31° 299° (WNW) 08:16:23 437.470
NUDT-PHONESAT 20 Nov 08:10:37 08:12:50 15° 298° (WNW) 08:15:04 437.300
XW-2C 20 Nov 08:15:28 08:16:39 11° 302° (WNW) 08:17:51 145.795 - 145.815
LilacSat-2 20 Nov 08:15:48 08:16:44 11° 303° (WNW) 08:17:40 437.200
SEEDS 20 Nov 08:17:20 08:21:31 60° 287° (WNW) 08:25:41 437.485
PRISM 20 Nov 08:20:47 08:22:40 13° 56° (NE) 08:24:33 437.425
XW-2A 20 Nov 08:21:22 08:24:45 89° 112° (ESE) 08:28:07 145.665 - 145.685
CUBEBUG 2 20 Nov 08:24:39 08:28:46 53° 289° (WNW) 08:32:49 437.445
UNISAT 6 20 Nov 08:27:32 08:31:41 35° 67° (ENE) 08:35:46 437.425
AAUSAT CUBESAT 2 20 Nov 08:28:35 08:32:48 85° 103° (ESE) 08:37:00 437.432
TIGRISAT 20 Nov 08:32:17 08:36:27 36° 67° (ENE) 08:40:32 435.000
AO-73 20 Nov 08:33:52 08:37:57 55° 100° (E) 08:42:01 145.935
PCSat 20 Nov 08:46:01 08:51:18 48° 46° (NE) 08:56:32 145.827
HO-68 20 Nov 08:47:19 08:54:11 49° 298° (WNW) 09:01:01 435.675
Oscar 11 20 Nov 08:51:54 08:56:11 59° 101° (E) 09:00:28 .
Max Valier Satellite 20 Nov 09:04:15 09:05:43 12° 89° (E) 09:07:11 145.860
FO-29 20 Nov 09:10:44 09:16:49 36° 269° (W) 09:23:34 435.910
DELFI C3 20 Nov 09:13:21 09:16:34 23° 93° (E) 09:19:46 145.870
BEESAT 2 20 Nov 09:14:24 09:14:48 10° 8° (N) 09:15:12 435.950
AO-85 20 Nov 09:18:03 09:19:23 11° 1° (N) 09:20:46 145.980
ZACube-1 20 Nov 09:18:11 09:22:11 47° 290° (WNW) 09:26:09 437.345
CUTE 1.7 + AOD 2 20 Nov 09:21:35 09:23:13 12° 304° (WNW) 09:24:50 437.475
UWE-3 20 Nov 09:25:07 09:28:30 24° 296° (WNW) 09:31:51 435.000/436.395/437.385
AIST 2D 20 Nov 09:25:32 09:27:19 14° 61° (ENE) 09:29:06 435.315
YUBILEINY 20 Nov 09:31:36 09:34:58 12° 320° (NW) 09:38:21 435.215
BEESAT 3 20 Nov 09:42:59 09:45:41 17° 27° (NNE) 09:48:22 437.485
PRISM 20 Nov 09:53:09 09:57:17 88° 260° (W) 10:01:29 437.425
UNISAT 6 20 Nov 10:04:23 10:08:25 30° 265° (W) 10:12:24 437.425
DUCHIFAT 1 20 Nov 10:05:04 10:07:24 15° 58° (ENE) 10:09:45 145.980
AAUSAT CUBESAT 2 20 Nov 10:05:38 10:07:39 13° 302° (WNW) 10:09:39 437.432
TIGRISAT 20 Nov 10:09:10 10:13:10 30° 265° (W) 10:17:08 435.000
EO-79 20 Nov 10:09:45 10:12:50 20° 61° (ENE) 10:15:55 145.935-145.965
AO-73 20 Nov 10:10:59 10:13:49 18° 299° (WNW) 10:16:40 145.935
NANOSAT C BR1 20 Nov 10:14:00 10:17:02 19° 61° (ENE) 10:20:04 145.865
POLYITAN 1 20 Nov 10:24:07 10:27:39 26° 64° (ENE) 10:31:11 437.675
Oscar 11 20 Nov 10:28:55 10:31:55 19° 299° (WNW) 10:34:57 .
PCSat 20 Nov 10:29:41 10:34:34 35° 247° (WSW) 10:39:27 145.827
Max Valier Satellite 20 Nov 10:36:19 10:39:57 63° 286° (WNW) 10:43:34 145.860
HO-68 20 Nov 10:36:49 10:40:19 14° 320° (NW) 10:43:48 435.675
EO-88 20 Nov 10:37:51 10:41:31 85° 282° (WNW) 10:45:10 145.990 - 145.960
QB50P2 20 Nov 10:46:40 10:50:44 46° 69° (ENE) 10:54:48 145.880/145.840
DELFI C3 20 Nov 10:47:42 10:51:26 38° 291° (WNW) 10:55:08 145.870
BEESAT 2 20 Nov 10:50:51 10:54:01 21° 31° (NNE) 10:57:09 435.950
AO-7 20 Nov 10:55:55 10:56:49 10° 19° (NNE) 10:57:43 .
AIST 2D 20 Nov 10:56:41 11:00:04 55° 260° (W) 11:03:30 435.315
AO-85 20 Nov 10:58:22 11:01:31 19° 26° (NNE) 11:04:49 145.980
BUGSAT 1 20 Nov 11:02:50 11:05:19 15° 59° (ENE) 11:07:46 437.445
LO-87 20 Nov 11:06:55 11:10:02 28° 96° (E) 11:13:06 145.935 - 145.965
BEESAT 3 20 Nov 11:19:55 11:23:54 72° 48° (NE) 11:27:49 437.485
Oscar 19 20 Nov 11:22:27 11:25:54 19° 56° (NE) 11:29:21 437.125/150
ESTCUBE 1 20 Nov 11:27:28 11:31:41 37° 97° (E) 11:35:54 437.505/2401.250
PRISM 20 Nov 11:32:43 11:33:13 10° 274° (W) 11:33:43 437.425
Gurwin Techsat 1B 20 Nov 11:36:59 11:40:38 19° 56° (NE) 11:44:17 435.225
DUCHIFAT 1 20 Nov 11:38:18 11:42:32 77° 257° (WSW) 11:46:46 145.980
EO-79 20 Nov 11:44:05 11:48:15 53° 260° (W) 11:52:26 145.935-145.965
NANOSAT C BR1 20 Nov 11:48:14 11:52:23 54° 260° (W) 11:56:33 145.865
VELOX 1 20 Nov 11:55:13 11:57:21 13° 88° (E) 11:59:29 145.980
POLYITAN 1 20 Nov 11:59:19 12:03:17 38° 262° (W) 12:07:16 437.675
QB50P2 20 Nov 12:23:29 12:26:44 21° 268° (W) 12:30:00 145.880/145.840
M-CUBED/EXP-1 PRIME 20 Nov 12:25:18 12:27:38 16° 52° (NE) 12:30:05 437.505
BEESAT 2 20 Nov 12:28:09 12:32:13 81° 234° (SW) 12:36:13 435.950
BUGSAT 1 20 Nov 12:35:58 12:40:10 72° 256° (WSW) 12:44:21 437.445
AO-85 20 Nov 12:38:12 12:42:43 63° 46° (NE) 12:47:36 145.980
AO-7 20 Nov 12:40:16 12:46:45 27° 45° (NE) 12:53:15 .
LO-87 20 Nov 12:40:25 12:43:21 24° 294° (WNW) 12:46:16 145.935 - 145.965
BEESAT 3 20 Nov 12:58:37 13:00:56 15° 248° (WSW) 13:03:14 437.485
